Regional Weather Roundup
Issued by NWS

Home | Current Version | Previous Version | Text Only | Print | Product List | Glossary On
Versions: 1 2 3 4 5 6 7 8 9 10 11 12 13 14 15 16 17 18 19 20 21 22 23 24 25 26 27 28 29 30 31 32 33 34 35 36 37 38 39 40 41 42 43 44 45 46 47 48 49 50
000
ASUS44 KFWD 202110
RWRTX
NORTH TEXAS HOURLY WEATHER ROUNDUP
NATIONAL WEATHER SERVICE FORT WORTH TX
300 PM CST SAT DEC 20 2014

NOTE: "FAIR" INDICATES FEW OR NO CLOUDS BELOW 12,000 FEET WITH NO
SIGNIFICANT WEATHER AND/OR OBSTRUCTIONS TO VISIBILITY.

TXZ118-119-202200-
DALLAS/FORT WORTH METROPLEX

CITY           SKY/WX    TMP DP  RH WIND       PRES   REMARKS
DFW AIRPORT    CLOUDY    46  42  86 NE3       30.19S
DALLAS LOVE    CLOUDY    48  42  80 N3        30.19F
FTW MEACHAM    CLOUDY    48  43  82 CALM      30.18F
DAL-EXECUTIVE  CLOUDY    49  43  80 N5        30.18F
FTW-ALLIANCE   DRIZZLE   46  43  89 CALM      30.18F
FTW-SPINKS     CLOUDY    48  45  87 CALM      30.20F FOG
ARLINGTON      CLOUDY    49  41  74 CALM      30.19F
GRAND PRAIRIE  CLOUDY    46  45  93 CALM      30.21F
ADDISON        CLOUDY    46  43  87 NE3       30.20F
MESQUITE       CLOUDY    46  43  87 CALM      30.20F
LANCASTER      CLOUDY    47  41  79 CALM      30.20F
$$

TXZ091>094-102>105-117-120-121-131>134-202200-
NORTH CENTRAL TEXAS

CITY           SKY/WX    TMP DP  RH WIND       PRES   REMARKS
SHRMAN/DENISON CLOUDY    46  44  93 CALM      30.20F
GAINESVILLE    CLOUDY    46  39  77 SW3       30.20F
BOWIE          CLOUDY    43  41  93 S3        30.18F
BRIDGEPORT     CLOUDY    46  44  91 CALM      30.20F
DECATUR        MOSUNNY   45  41  86 W5        30.18S
DENTON         CLOUDY    46  41  82 CALM      30.19F
MCKINNEY       CLOUDY    45  43  93 CALM      30.20S
GREENVILLE     CLOUDY    46  45  93 CALM      30.20S
ROCKWALL       CLOUDY    47  44  90 CALM      30.19S
TERRELL        CLOUDY    50  45  83 N3        30.20F
WAXAHACHIE     CLOUDY    48  45  91 CALM      30.20S FOG
CLEBURNE       CLOUDY    48  45  87 CALM      30.19F
GRANBURY       CLOUDY    50  42  72 CALM      30.19F
$$

TXZ083>090-098>101-113>116-127>130-139>142-154-155-202200-
WESTERN NORTH TEXAS

CITY           SKY/WX    TMP DP  RH WIND       PRES   REMARKS
WICHITA FALLS  CLOUDY    45  40  82 SE13      30.15F WCI  39
WF-KICKAPOO    CLOUDY    46  40  79 SE7       30.17F
VERNON         CLOUDY    49  37  63 S9        30.13F
ABILENE        CLOUDY    50  40  68 SE9       30.12F
BRECKENRIDGE   CLOUDY    50  41  70 SE7       30.15F
GRAHAM         CLOUDY    47  42  84 SE7       30.15F
MINERAL WELLS  CLOUDY    46  41  82 CALM      30.16F
STEPHENVILLE   CLOUDY    47  40  78 CALM      30.19F
COMANCHE       CLOUDY    49  44  81 SE5       30.16F
BROWNWOOD      CLOUDY    50  39  66 CALM      30.14F
COLEMAN        CLOUDY    51  43  74 SE6       30.13F
BRADY          MOSUNNY   54  39  58 E7        30.12F
$$

TXZ143>147-156>162-174-175-202200-
CENTRAL TEXAS

CITY           SKY/WX    TMP DP  RH WIND       PRES   REMARKS
WACO           CLOUDY    50  44  80 N7        30.18F
WACO-TSTC      CLOUDY    50  46  87 MISG      30.19F
WACO-MCGREGOR  CLOUDY    52  43  71 N6        30.19F
HILLSBORO      CLOUDY    49  44  80 CALM      30.18F
CORSICANA      CLOUDY    51  45  79 E6        30.19F
MEXIA          CLOUDY    49  46  88 N5        30.17F
HEARNE         CLOUDY    52  47  84 N8        30.18F
CAMERON        CLOUDY    51  48  90 N7        30.17F FOG
TEMPLE         CLOUDY    52  41  66 N9        30.16F
KILLEEN        CLOUDY    51  43  73 NE5       30.16F
KILLEEN-SKYLRK CLOUDY    52  39  62 NE5       30.14F
FORT HOOD      CLOUDY    51  43  75 N6        30.15F
GATESVILLE     PTSUNNY   52  43  71 CALM      30.18F
HAMILTON       CLOUDY    49  42  75 SW8       30.16F
LAMPASAS       CLOUDY    50  43  75 CALM      30.14
$$

TXZ095>097-106>112-122>126-135>138-148>153-164>167-202200-
EAST TEXAS

CITY           SKY/WX    TMP DP  RH WIND       PRES   REMARKS
PARIS          CLOUDY    48  41  76 CALM      30.21S
SULPHUR SPRNGS CLOUDY    48  44  85 CALM      30.22S FOG
MOUNT PLEASANT CLOUDY    49  45  84 CALM      30.22S
MINEOLA        CLOUDY    52  46  82 SE3       30.20F HAZE
TYLER          CLOUDY    53  43  68 E5        30.18F
LONGVIEW       PTSUNNY   52  43  71 CALM      30.18F
MARSHALL       CLOUDY    51  46  82 CALM      30.21F
ATHENS         CLOUDY    50  43  76 CALM      30.17F
PALESTINE      CLOUDY    52  46  79 NE5       30.20S
JACKSONVILLE   PTSUNNY   50  45  82 N3        30.19F
HENDERSON      CLOUDY    51  43  73 CALM      30.20S
NACOGDOCHES    MOSUNNY   54  43  66 E5        30.18S
LUFKIN         PTSUNNY   56  44  64 N6        30.17S
$$

SUPPLEMENTAL OBSERVATIONS (CENTRAL)

CITY           SKY/WX    TMP DP  RH WIND       PRES   REMARKS
CADDO GRASSLND   N/A     46  43  87 W1          N/A
PAT MAYSE LAKE   N/A     46  43  87 CALM        N/A
GREENVILLE       N/A     46  43  87 E1          N/A
CEDAR HILL       N/A     48  43  81 N1          N/A
PALESTINE        N/A     50  45  81 E3          N/A
MCGREGOR         N/A     52  45  76 NE6         N/A
TEMPLE           N/A     52  45  76 N6          N/A
$$

SUPPLEMENTAL OBSERVATIONS (WEST)

CITY           SKY/WX    TMP DP  RH WIND       PRES   REMARKS
MILLERS CREEK    N/A     50  45  81 S9          N/A
POSSUM KINGDOM   N/A     46  41  81 SE6         N/A
GRANBURY         N/A     50  39  66 W2          N/A
HAMBY            N/A     50  39  66 SE7G15      N/A
COLORADO BEND    N/A     48  39  71 E3          N/A
$$

SUPPLEMENTAL OBSERVATIONS (EAST)

CITY           SKY/WX    TMP DP  RH WIND       PRES   REMARKS
CLARKSVILLE      N/A     48  43  81 CALM        N/A
TEXARKANA        N/A     52  41  66 NW3         N/A
LINDEN           N/A     54  43  66 W1          N/A
GILMER           N/A     55  43  62 S3          N/A
HENDERSON        N/A     54  43  66 E6          N/A
LUFKIN           N/A     54  43  66 MISG        N/A
N SABINE NF      N/A     52  45  76 MISG        N/A
S SABINE NF      N/A     52  43  71 NE3         N/A
$$

SUPPLEMENTAL OBSERVATIONS ARE A COLLECTION OF AUTOMATED INSTRUMENTS
THAT ARE MAINTAINED BY A VARIETY OF FEDERAL AND STATE AGENCIES.
CERTAIN ELEMENTS...SUCH AS HUMIDITY VALUES AND SUSTAINED WIND
SPEEDS...MAY BE APPROXIMATED.



USA.gov is the U.S. government's official web portal to all federal, state and local government web resources and services.